This demonstration page uses our WeatherBlox Daily Observations layout. Learn more.

Left ArrowRight Arrow

Hourly Observations for May 14, 2018

Temp ( °F °C ) Dew Point ( °F °C ) Humidity (%) Winds ( mph kmh ) Pressure ( in mb ) Visibility ( mi km ) Precip ( " mm )
12:44 am 00:44 Cloudy 54 12 52 11 94 94 N 13 20 29.94 1014 10 16 0.00 0.00
12:56 am 00:56 Cloudy 54 12.2 52 11.1 93 93 N 14 22 29.96 1015 10 16 0.00 0.00
1:06 am 01:06 Cloudy 54 12 52 11 94 94 N 12 19 29.94 1014 10 16 0.00 0.00
1:38 am 01:38 Cloudy with Nearby Thunderstorms 54 12 52 11 94 94 NE 9 15 29.97 1015 7 11 0.05 1.27
1:56 am 01:56 Cloudy with Thunderstorms 54 12.2 53 11.7 97 97 NNE 6 9 29.97 1015 9 14 0.08 2.03
2:53 am 02:53 Cloudy with Thunderstorms 54 12 54 12 100 100 NNE 7 11 29.97 1015 9 14 0.00 0.00
2:56 am 02:56 Cloudy with Thunderstorms 53 11.7 53 11.7 100 100 NNE 15 24 29.95 1014 8 13 0.03 0.76
3:16 am 03:16 Cloudy with Nearby Thunderstorms 54 12 54 12 100 100 NNE 10 17 29.94 1014 10 16 0.00 0.03
3:23 am 03:23 Cloudy with Nearby Thunderstorms 54 12 54 12 100 100 N 6 9 29.94 1014 10 16 0.00 0.00
3:37 am 03:37 Cloudy 54 12 54 12 100 100 N 8 13 29.94 1014 10 16 0.00 0.00
3:56 am 03:56 Cloudy 54 12.2 53 11.7 97 97 N 10 17 29.96 1015 10 16 0.00 0.03
5:11 am 05:11 Cloudy 54 12 54 12 100 100 N 9 15 29.94 1014 10 16 0.00 0.00
5:42 am 05:42 Cloudy 54 12 54 12 100 100 NNW 7 11 29.94 1014 10 16 0.00 0.00
5:56 am 05:56 Cloudy 54 12.2 53 11.7 97 97 NNW 9 15 29.96 1015 10 16 0.00 0.00
6:10 am 06:10 Cloudy 54 12 54 12 100 100 N 8 13 29.94 1014 10 16 0.00 0.00
6:43 am 06:43 Cloudy with Nearby Thunderstorms 54 12 54 12 100 100 NNW 7 11 29.97 1015 7 11 0.00 0.00
6:54 am 06:54 Cloudy with Rain 54 12 54 12 100 100 SW 3 6 30.03 1017 6 10 0.06 1.52
6:56 am 06:56 Cloudy with Rain 54 12.2 53 11.7 97 97 SSW 3 6 30.01 1016 5 8 0.07 1.78
7:12 am 07:12 Cloudy with Light Rain 54 12 54 12 100 100 Calm 29.97 1015 8 13 0.02 0.51
7:27 am 07:27 Cloudy with Nearby Thunderstorms 54 12 54 12 100 100 NNE 5 7 29.97 1015 9 14 0.00 0.00
7:47 am 07:47 Cloudy with Light Rain 54 12 54 12 100 100 SE 3 6 29.97 1015 8 13 0.00 0.00
7:56 am 07:56 Cloudy with Light Rain 54 12.2 54 12.2 100 100 ENE 5 7 29.95 1014 9 14 0.07 1.78
8:06 am 08:06 Cloudy with Nearby Thunderstorms 55 13 54 12 94 94 SE 10 17 29.94 1014 4 6 0.05 1.27
8:15 am 08:15 Cloudy with Light Rain 54 12 54 12 100 100 ESE 8 13 29.91 1013 3 5 0.00 0.00
8:56 am 08:56 Cloudy 56 13.3 55 12.8 97 97 SE 10 17 29.95 1014 10 16 0.09 2.29
9:56 am 09:56 Sunny 58 14.4 56 13.3 93 93 ENE 7 11 29.97 1015 10 16 0.00 0.00
10:26 am 10:26 Cloudy 59 15 55 13 88 88 N 14 22 29.97 1015 10 16 0.00 0.00
10:56 am 10:56 Cloudy 58 14.4 56 13.3 93 93 N 13 20 29.99 1016 10 16 0.00 0.00
11:41 am 11:41 Sunny 59 15 55 13 88 88 N 14 22 29.97 1015 10 16 0.00 0.00
11:56 am 11:56 Sunny 59 15 56 13.3 90 90 N 15 24 30.00 1016 10 16 0.00 0.00
12:56 pm 12:56 Sunny 65 18.3 59 15 81 81 N 8 13 29.97 1015 10 16 0.00 0.00
1:07 pm 13:07 Cloudy 64 18 57 14 78 78 N 7 11 29.94 1014 10 16 0.00 0.00
1:56 pm 13:56 Mostly Cloudy 68 20 59 15 73 73 NE 5 7 29.96 1015 10 16 0.00 0.00
2:33 pm 14:33 Mostly Cloudy 70 21 57 14 64 64 NNW 6 9 29.91 1013 10 16 0.00 0.00
2:56 pm 14:56 Cloudy 70 21.1 59 15 68 68 NNW 6 9 29.95 1014 10 16 0.00 0.00
3:56 pm 15:56 Cloudy 71 21.7 59 15 66 66 N 13 20 29.91 1013 10 16 0.00 0.00
4:35 pm 16:35 Cloudy 72 22 59 15 65 65 N 14 22 29.85 1011 10 16 0.00 0.00
4:56 pm 16:56 Cloudy 71 21.7 58 14.4 63 63 N 14 22 29.91 1013 10 16 0.00 0.00
5:56 pm 17:56 Mostly Cloudy 71 21.7 59 15 66 66 N 14 22 29.91 1013 10 16 0.00 0.00
6:56 pm 18:56 Sunny 69 20.6 59 15 70 70 N 15 24 29.90 1013 10 16 0.00 0.00
7:56 pm 19:56 Sunny 67 19.4 58 14.4 73 73 N 12 19 29.90 1013 10 16 0.00 0.00
8:56 pm 20:56 Clear 64 17.8 58 14.4 81 81 N 14 22 29.91 1013 10 16 0.00 0.00
9:56 pm 21:56 Clear 64 17.8 58 14.4 81 81 N 15 24 29.93 1014 10 16 0.00 0.00
10:56 pm 22:56 Mostly Clear 62 16.7 57 13.9 84 84 NW 3 6 29.97 1015 10 16 0.00 0.00
11:56 pm 23:56 Cloudy 61 16.1 57 13.9 87 87 NNW 5 7 29.99 1016 10 16 0.00 0.00

Powered by AerisWeather